603  
AXUS43 KLBF 221010  
MISLBF  
 
WESTERN AND NORTH CENTRAL NEBRASKA HOURLY WEATHER ROUNDUP  
NATIONAL WEATHER SERVICE NORTH PLATTE NE  
400 AM CST MON JAN 22 2018  
 
NOTE: "FAIR" INDICATES FEW OR NO CLOUDS BELOW 12,000 FEET WITH NO  
SIGNIFICANT WEATHER AND/OR OBSTRUCTIONS TO VISIBILITY.  
 
NOTE: STATIONS NOT REPORTING VARIABLES SUCH AS SKY/WEATHER OR  
PRESSURE ARE PROVIDED BY RAWS AND APRS NETWORKS AND ARE NOT UNDER  
NATIONAL WEATHER SERVICE QUALITY CONTROL.  
   
..OBSERVATIONS IN AND NEAR THE EASTERN PANHANDLE OF NEBRASKA
 
 
 
CITY SKY/WX TMP DP RH WIND PRES REMARKS  
PINE RIDGE MOCLDY 21 18 88 W8 29.97R WCI 11  
GORDON FAIR 25 20 82 NW15 29.93R WCI 13  
CHADRON CLEAR 17 13 84 VRB3 30.00R  
ALLIANCE MOCLDY 24 19 81 NW18 29.92R WCI 10  
SIDNEY CLOUDY 25 19 78 NW23 29.92R WCI 10  
CRESCENT LAKE N/A 23 19 85 N20G29 N/A WCI 8  

 
   
..OBSERVATIONS IN NORTHERN NEBRASKA AND FAR SOUTHERN SOUTH DAKOTA
 
 
 
CITY SKY/WX TMP DP RH WIND PRES REMARKS  
WINNER CLOUDY 27 25 92 N15 29.91S FOG WCI 15  
VALENTINE LGT SNOW 28 24 85 N15 29.89S FOG WCI 16  
AINSWORTH CLOUDY 27 27 100 N28 29.83S WCI 11  
O'NEILL CLOUDY 30 30 100 N30G37 29.73F WCI 15  
THEDFORD CLOUDY 28 26 94 N26G36 29.81S WCI 13  
BROKEN BOW CLOUDY 30 27 88 N35G41 29.68S FOG WCI 14  
ORD LGT SNOW 31 29 92 N21G38 29.67S FOG WCI 18  
ALBION LGT SNOW 33 32 95 N24G44 29.57S VSB 3/4 WCI 20  
VALENTINE NWR N/A 26 25 96 N20G30 N/A WCI 12  
HALSEY N/A 27 26 97 N16G33 N/A WCI 15  
BUTTE N/A 25 24 95 N20G29 N/A WCI 11  
CHAMBERS N/A 30 30 99 S7G18 N/A WCI 23  
EWING N/A 31 30 96 N9G20 N/A WCI 23  

 
   
..OBSERVATIONS IN SOUTHWEST NEBRASKA AND FAR NORTHEAST COLORADO
 
 
 
CITY SKY/WX TMP DP RH WIND PRES REMARKS  
WRAY CLOUDY 28 28 100 NW30G37 29.87R WCI 13  
HOLYOKE CLOUDY 30 27 86 NW28G35 29.89R WCI 16  
IMPERIAL CLOUDY 27 26 96 NW36G45 29.81R FOG WCI 10  
OGALLALA N/A 29 27 92 NW26G32 29.86S WCI 14  
NORTH PLATTE CLOUDY 29 26 89 N24G37 29.76S FOG WCI 15  
MCCOOK LGT SNOW 30 28 92 N37G47 29.68R VSB 1 WCI 14  
LEXINGTON LGT SNOW 32 29 91 N13G18 29.66R VSB 1 WCI 22  
STAPLETON N/A 26 25 96 N8G21 N/A WCI 18  
GOTHENBURG N/A 27 27 100 NW20 N/A WCI 14  
CALLAWAY N/A 27 26 96 N28 N/A WCI 12  

 
   
..OBSERVATIONS IN CENTRAL LINCOLN COUNTY AREA
 
 
 
CITY SKY/WX TMP DP RH WIND PRES REMARKS  
N.P. AIRPORT CLOUDY 29 26 89 N24G37 29.76S FOG WCI 15  
N.P. DOWNTOWN N/A 27 26 97 NW13G22 N/A WCI 16  
N.P. SOUTHEAST N/A 27 26 94 N13G26 N/A WCI 16  
N.P. HILLCREST N/A 28 26 94 NW26G36 N/A WCI 13  

 
   
..SOME OBSERVATIONS FROM AROUND THE REGION
 
 
 
CITY SKY/WX TMP DP RH WIND PRES REMARKS  
DENVER MOCLDY 22 12 65 W3 29.96R  
BERTHOUD PASS HVY SNOW -6 -17 59 N9G29 29.84R VSB 1/4 WCI -22  
GRAND JUNCTION PTCLDY 13 9 84 E7 30.24R WCI 3  
LARAMIE PTCLDY 0 -2 91 SE5 29.96R WCI -10  
CHEYENNE CLEAR 18 9 68 NW14G24 29.93S WCI 4  
CASPER MOCLDY 13 7 77 SW18 30.02S WCI -4  
BISMARCK FOG 19 17 92 NW5 30.02S VSB 1/2 WCI 12  
RAPID CITY CLEAR 28 18 66 N17 29.95S WCI 16  
PIERRE FOG 23 23 100 N8 29.97S VSB 3/4 WCI 14  
SIOUX FALLS MIX PCPN 30 27 88 N30G38 29.72F FOG WCI 15  
OMAHA CLOUDY 38 34 85 N14G20 29.46S WCI 30  
GRAND ISLAND CLOUDY 32 31 96 N23G33 29.56R WCI 19  
SCOTTSBLUFF PTCLDY 26 17 68 NW16 29.97R WCI 14  
KANSAS CITY FOG 45 45 100 SW8 29.42S VSB 1/2  
HILL CITY LGT SNOW 31 31 100 NW29G38 29.59R FOG WCI 16  
WICHITA CLOUDY 38 32 79 W18G24 29.52F WCI 28  
DODGE CITY CLOUDY 32 24 72 NW37G52 29.63R WCI 16  
OKLAHOMA CITY PTCLDY 37 25 61 W17 29.78R WCI 27  
DALLAS CLEAR 51 26 37 NW17 29.89R  
AMARILLO CLEAR 27 16 63 NW14 29.94S WCI 16  

 
 
 
CLICK HERE TO GO TO PREVIOUS BULLETINS.

The Nexlab NE Page Main Text Page